Regional Weather Roundup
Issued by NWS

Home | Current Version | Previous Version | Graphics & Text | Print | Product List | Glossary On
Versions: 1 2 3 4 5 6 7 8 9 10 11 12 13 14 15 16 17 18 19 20 21 22 23 24 25 26 27 28 29 30 31 32 33 34 35 36 37 38 39 40 41 42 43 44 45 46 47 48 49 50
000
ASUS43 KLSX 230407
RWRMO

WEATHER SUMMARY FOR MISSOURI
NATIONAL WEATHER SERVICE SPRINGFIELD MO
1000 PM CST MON JAN 22 2018

NOTE: "FAIR" INDICATES FEW OR NO CLOUDS BELOW 12,000 FEET WITH NO
       SIGNIFICANT WEATHER AND/OR OBSTRUCTIONS TO VISIBILITY.
       CURRENT SKY AND/OR WEATHER CONDITIONS ARE NOT AVAILABLE FOR
       CHILLICOTHE AND FARMINGTON.

MOZ001>031-035>038-043-044-053-054-230500-
...NORTHERN AND WESTERN MISSOURI...

CITY           SKY/WX    TMP DP  RH WIND       PRES   REMARKS
KANSAS CTY INT CLOUDY    31  28  89 NW15G26   29.75R WCI  20
KANSAS C DTWN  FLURRIES  34  28  79 NW15G25   29.75R WCI  24
LEE`S SUMMIT   LGT SNOW  32  30  92 W18G35    29.74R FOG     WCI  20
ST JOSEPH      CLOUDY    32  29  88 NW23G36   29.78R WCI  19
CHILLICOTHE      N/A     35  31  85 NW13G28   29.64R WCI  26
KIRKSVILLE     CLOUDY    35  35 100 W10       29.55R WCI  27

$$
MOZ066>068-077>081-088>096-101>105-230500-
...SOUTHWEST MISSOURI...

CITY           SKY/WX    TMP DP  RH WIND       PRES   REMARKS
SPRINGFIELD    CLOUDY    34  28  79 W22G39    29.79R WCI  22
JOPLIN         CLOUDY    35  28  75 W20G31    29.88R WCI  24
BRANSON        CLOUDY    37  27  65 W16G30    29.82R WCI  28

$$
MOZ032>034-039>042-045>050-055>058-069>072-230500-
...CENTRAL MISSOURI...

CITY           SKY/WX    TMP DP  RH WIND       PRES   REMARKS
COLUMBIA       LGT SNOW  33  31  92 W20       29.62R FOG     WCI  21
JEFFERSON CITY FLURRIES  35  29  78 W17G29    29.66R WCI  25
ROLLA          CLOUDY    33  27  78 W22G32    29.66R WCI  21
SEDALIA        LGT SNOW  35  33  92 W18G28    29.68R FOG     WCI  24
WHITEMAN AFB   LGT RAIN  34  29  83 W17G29    29.66R WCI  23
WARRENSBURG    FLURRIES  34  30  86 W18G26    29.72R WCI  23
OSAGE BEACH    MIX PCPN  34  29  82 W17G28    29.71R WCI  23

$$
MOZ051-052-059>065-230500-
...EAST CENTRAL MISSOURI...

CITY           SKY/WX    TMP DP  RH WIND       PRES   REMARKS
ST LOUIS INTL  LGT RAIN  40  31  70 W23G29    29.61R WCI  30
SPIRIT OF STL  CLOUDY    39  31  72 SW13G28   29.61R
ST CHARLES     CLOUDY    40  30  67 W18       29.60R

$$
MOZ072>076-082>087-097>100-106>115-230500-
...SOUTH CENTRAL AND SOUTHEAST MISSOURI...

CITY           SKY/WX    TMP DP  RH WIND       PRES   REMARKS
CAPE GIRARDEAU CLOUDY    44  32  62 W18       29.71R
FARMINGTON     MIX PCPN  37  30  75 W14G21    29.68R WCI  28
POPLAR BLUFF   CLOUDY    45  26  47 W23G41    29.75R
WEST PLAINS    CLOUDY    38  27  64 W20G30    29.75R WCI  28

$$



USA.gov is the U.S. government's official web portal to all federal, state and local government web resources and services.